User: anonymous   Login
Location: St Andrew
(49.4460°N, 2.5750°W)
Time: 02:57:50
(UTC+00:00)
Language:

Iridium 66 - Orbit

View from above orbital plane
View from above orbital plane
View from above satellite
View from above satellite

Ground track
Ground track

The orbit data is extracted from the following two-line orbital elements,

1 25289U 98021E   14331.17787980  .00000725  00000-0  25188-3 0  9581
2 25289 086.3976 253.7367 0002109 101.1078 017.5979 14.34217911871287
Epoch (UTC): 27 November 2014 04:16:08
Eccentricity: 0.0002109
inclination: 86.3976°
perigee height: 776 km
apogee height: 779 km
right ascension of ascending node: 253.7367°
argument of perigee: 101.1078°
revolutions per day: 14.34217911
mean anomaly at epoch: 17.5979°
orbit number at epoch: 87128

The dashed part of the orbit path shows where the satellite is in the earth's shadow,  

DLR